Weather History for Sidney-Richland, MT

Change the Weather History Date:

Monday, June 17, 2013

  Actual Average Record
Temperature  
Mean Temperature 60 °F -  
Max Temperature 71 °F 78 °F 102 °F (1988)
Min Temperature 48 °F 50 °F 38 °F (1912)
Degree Days  
Heating Degree Days 6    
Growing Degree Days 10 (Base 50)    
Moisture  
Dew Point 51 °F    
Average Humidity 71    
Maximum Humidity 94    
Minimum Humidity 50    
Precipitation  
Precipitation 0.00 in - - ()
Sea Level Pressure  
Sea Level Pressure 30.13 in    
Wind  
Wind Speed 5 mph (NE)    
Max Wind Speed 10 mph    
Max Gust Speed -    
Visibility 9 miles    
Events      
Averages and records for this station are not official NWS values.
T = Trace of Precipitation, MM = Missing Value Source: NWS Daily Summary

Daily Weather History Graph

Daily Weather History Graph

Search for Another Location

Airport:

Trip Planner

Search our weather history database for the weather conditions in past years. The results will help you decide how hot, cold, wet, or windy it might be!

Date:

Astronomy

Jun. 17, 2013 Rise Set
Actual Time 4:57 AM MDT 8:57 PM MDT
Civil Twilight 4:17 AM MDT 9:38 PM MDT
Nautical Twilight 3:20 AM MDT 10:35 PM MDT
Astronomical Twilight 1:48 AM MDT 12:07 AM MDT
Moon 2:17 PM MDT (6/17) 12:59 AM MDT (6/17)
Length of Visible Light 17h 21m
Length of Day
15h 59m
First Quarter, 61% of the Moon is Illuminated
Jun 17
First Quarter
Jun 23
Full
Jun 29
Last Quarter
Jul 8
New
Jul 15
First Quarter

Hourly Weather History & Observations

Time (MDT) Temp. Dew Point Humidity Pressure Visibility Wind Dir Wind Speed Gust Speed Precip Events Conditions
12:15 AM 55.4 °F 48.2 °F 77% 30.10 in 10.0 mi WNW 9.2 mph - N/A   Clear
12:35 AM 53.6 °F 48.2 °F 82% 30.10 in 10.0 mi WNW 10.4 mph - N/A   Clear
12:55 AM 53.6 °F 48.2 °F 82% 30.11 in 10.0 mi WNW 9.2 mph - N/A   Clear
1:15 AM 53.6 °F 48.2 °F 82% 30.11 in 10.0 mi WNW 9.2 mph - N/A   Clear
1:35 AM 51.8 °F 46.4 °F 82% 30.12 in 10.0 mi WNW 5.8 mph - N/A   Clear
1:55 AM 53.6 °F 48.2 °F 82% 30.11 in 10.0 mi WNW 9.2 mph - N/A   Clear
2:15 AM 53.6 °F 48.2 °F 82% 30.11 in 10.0 mi WNW 8.1 mph - N/A   Clear
2:55 AM 51.8 °F 46.4 °F 82% 30.11 in 10.0 mi NNW 3.5 mph - N/A   Clear
3:15 AM 51.8 °F 46.4 °F 82% 30.12 in 10.0 mi Calm Calm - N/A   Clear
3:35 AM 51.8 °F 46.4 °F 82% 30.12 in 10.0 mi Calm Calm - N/A   Clear
3:55 AM 51.8 °F 46.4 °F 82% 30.12 in 10.0 mi Calm Calm - N/A   Clear
4:55 AM 48.2 °F 46.4 °F 93% 30.13 in 10.0 mi Calm Calm - N/A   Clear
5:15 AM 48.2 °F 46.4 °F 93% 30.13 in 10.0 mi NW 3.5 mph - N/A   Clear
5:55 AM 51.8 °F 48.2 °F 88% 30.14 in 10.0 mi NW 6.9 mph - N/A   Clear
6:15 AM 51.8 °F 50.0 °F 94% 30.15 in 10.0 mi NNW 3.5 mph - N/A   Mostly Cloudy
6:35 AM 53.6 °F 50.0 °F 88% 30.15 in 10.0 mi NNW 9.2 mph - N/A   Mostly Cloudy
7:15 AM 53.6 °F 51.8 °F 94% 30.16 in 10.0 mi NNW 6.9 mph - N/A   Mostly Cloudy
7:35 AM 55.4 °F 51.8 °F 88% 30.16 in 10.0 mi North 3.5 mph - N/A   Overcast
7:55 AM 57.2 °F 51.8 °F 82% 30.17 in 10.0 mi Calm Calm - N/A   Overcast
8:15 AM 57.2 °F 53.6 °F 88% 30.17 in 10.0 mi South 5.8 mph - N/A   Overcast
8:35 AM 57.2 °F 53.6 °F 88% 30.17 in 10.0 mi SSE 3.5 mph - N/A   Overcast
8:55 AM 57.2 °F 53.6 °F 88% 30.18 in 10.0 mi SSW 3.5 mph - N/A   Overcast
9:15 AM 57.2 °F 51.8 °F 82% 30.18 in 10.0 mi Calm Calm - N/A   Overcast
9:35 AM 60.8 °F 53.6 °F 77% 30.18 in 10.0 mi Calm Calm - N/A   Overcast
9:55 AM 60.8 °F 53.6 °F 77% 30.17 in 10.0 mi Calm Calm - N/A   Overcast
10:15 AM 60.8 °F 53.6 °F 77% 30.17 in 10.0 mi Calm Calm - N/A   Overcast
10:35 AM 62.6 °F 53.6 °F 72% 30.17 in 10.0 mi East 5.8 mph - N/A   Overcast
10:55 AM 62.6 °F 53.6 °F 72% 30.17 in 10.0 mi ESE 4.6 mph - N/A   Overcast
11:15 AM 64.4 °F 53.6 °F 68% 30.16 in 10.0 mi East 4.6 mph - N/A   Mostly Cloudy
11:35 AM 64.4 °F 53.6 °F 68% 30.17 in 5.0 mi Calm Calm - N/A   Overcast
11:55 AM 64.4 °F 53.6 °F 68% 30.17 in 10.0 mi East 4.6 mph - N/A   Mostly Cloudy
12:15 PM 66.2 °F 53.6 °F 64% 30.16 in 10.0 mi North 3.5 mph - N/A   Mostly Cloudy
12:35 PM 64.4 °F 51.8 °F 64% 30.16 in 10.0 mi North 3.5 mph - N/A   Overcast
1:15 PM 66.2 °F 51.8 °F 60% 30.14 in 10.0 mi South 3.5 mph - N/A   Mostly Cloudy
1:35 PM 68.0 °F 53.6 °F 60% 30.14 in 10.0 mi NE 5.8 mph - N/A   Overcast
1:55 PM 68.0 °F 53.6 °F 60% 30.14 in 10.0 mi Calm Calm - N/A   Overcast
2:15 PM 66.2 °F 51.8 °F 60% 30.14 in 10.0 mi Calm Calm - N/A   Mostly Cloudy
2:35 PM 69.8 °F 53.6 °F 56% 30.14 in 10.0 mi Calm Calm - N/A   Partly Cloudy
2:55 PM 69.8 °F 53.6 °F 56% 30.14 in 10.0 mi NE 4.6 mph - N/A   Mostly Cloudy
3:15 PM 69.8 °F 53.6 °F 56% 30.13 in 10.0 mi NE 5.8 mph - N/A   Overcast
3:35 PM 71.6 °F 51.8 °F 50% 30.13 in 9.0 mi Calm Calm - N/A   Mostly Cloudy
3:55 PM 71.6 °F 51.8 °F 50% 30.13 in 10.0 mi NNE 3.5 mph - N/A   Scattered Clouds
4:15 PM 71.6 °F 51.8 °F 50% 30.12 in 10.0 mi NE 3.5 mph - N/A   Scattered Clouds
4:35 PM 71.6 °F 53.6 °F 53% 30.12 in 4.0 mi Calm Calm - N/A   Overcast
4:55 PM 69.8 °F 53.6 °F 56% 30.12 in 2.0 mi ENE 4.6 mph - N/A   Overcast
5:15 PM 71.6 °F 51.8 °F 50% 30.11 in 1.0 mi ESE 4.6 mph - N/A   Mostly Cloudy
5:35 PM 71.6 °F 51.8 °F 50% 30.11 in 2.5 mi Calm Calm - N/A   Partly Cloudy
5:55 PM 71.6 °F 53.6 °F 53% 30.11 in 9.0 mi NE 6.9 mph - N/A   Partly Cloudy
6:15 PM 71.6 °F 53.6 °F 53% 30.10 in 10.0 mi ENE 8.1 mph - N/A   Clear
6:35 PM 71.6 °F 53.6 °F 53% 30.10 in 10.0 mi East 6.9 mph - N/A   Clear
6:55 PM 69.8 °F 53.6 °F 56% 30.10 in 3.0 mi NE 6.9 mph - N/A   Clear
7:35 PM 69.8 °F 53.6 °F 56% 30.10 in 10.0 mi East 6.9 mph - N/A   Clear
8:15 PM 68.0 °F 51.8 °F 56% 30.10 in 10.0 mi East 6.9 mph - N/A   Clear
8:35 PM 66.2 °F 51.8 °F 60% 30.10 in 10.0 mi East 5.8 mph - N/A   Clear
8:55 PM 64.4 °F 51.8 °F 64% 30.10 in 10.0 mi East 5.8 mph - N/A   Clear
9:15 PM 62.6 °F 51.8 °F 68% 30.10 in 10.0 mi East 4.6 mph - N/A   Clear
9:35 PM 62.6 °F 51.8 °F 68% 30.11 in 10.0 mi East 4.6 mph - N/A   Clear
9:55 PM 60.8 °F 51.8 °F 72% 30.12 in 10.0 mi East 3.5 mph - N/A   Clear
10:15 PM 57.2 °F 50.0 °F 77% 30.12 in 10.0 mi Calm Calm - N/A   Clear
10:35 PM 57.2 °F 50.0 °F 77% 30.12 in 10.0 mi Calm Calm - N/A   Clear
10:55 PM 55.4 °F 48.2 °F 77% 30.11 in 10.0 mi Calm Calm - N/A   Clear
11:15 PM 53.6 °F 48.2 °F 82% 30.11 in 10.0 mi Calm Calm - N/A   Clear
11:35 PM 53.6 °F 48.2 °F 82% 30.11 in 10.0 mi Calm Calm - N/A   Clear
11:55 PM 53.6 °F 48.2 °F 82% 30.11 in 10.0 mi Calm Calm - N/A   Clear